Location: Shenandoah County Park
(38.9356°N, 78.4524°W)
Time: 20:12:51
(UTC-05:00)

X-37B - Pass Details

Date: 05 December 2022
Orbit: 277 x 277 km, 45.0° (Epoch: 01 November)

Event Time Altitude Azimuth Distance (km) Brightness Sun altitude
Rises 18:27:55 0° 224° (SW) 1,901 5.1 -18.2°
Reaches altitude 10° 18:29:55 10° 214° (SSW) 1,092 3.5 -18.6°
Enters shadow 18:31:11 22° 192° (SSW) 656 2.0 -18.9°
